Location: ????????
(60.5833°N, 46.7833°E)
Time: 20:30:02
(UTC+00:00)

Daily predictions for brighter satellites

Satellite Brightness Start Highest point End
(mag) Time Altitude Azimuth Time Altitude Azimuth Time Altitude Azimuth
Cosmos 2322 Rocket 3.8 19:48:23 10° W 19:53:41 40° NNW 19:59:01 10° NE
NOSS 3-3 (A) 4.1 19:50:10 10° SW 19:56:16 67° SE 20:03:17 10° ENE
NOSS 3-3 (C) 4.1 19:50:16 10° SW 19:56:23 66° SE 20:03:24 10° ENE
Cosmos 2058 3.1 19:53:05 10° SSW 19:57:14 72° WNW 20:01:23 10° NNE
Okean 3 Rocket 4.1 19:53:26 10° SSE 19:57:42 48° E 20:01:58 10° NNE
Cosmos 2228 Rocket 4.2 19:56:33 10° N 20:00:56 41° ENE 20:05:16 10° SE
Cosmos 2369 Rocket 2.3 19:56:50 10° NW 20:02:29 82° NE 20:08:06 10° SE
Cosmos 2344 4.1 19:58:12 10° SSW 20:05:06 42° SE 20:12:55 10° ENE
ATLAS 2AS CENTAUR R/B 3.8 20:01:42 10° WNW 20:08:20 33° WSW 20:14:32 10° S
COSMOS 2455 3.0 20:02:27 10° NW 20:08:27 65° SW 20:14:25 10° SSE
Cosmos 1980 3.8 20:02:52 10° SSW 20:08:28 67° ESE 20:14:06 10° NE
Cosmos 1825 2.2 20:05:51 10° S 20:09:38 79° ESE 20:13:27 10° NNE
Cosmos 1340 3.8 20:06:30 10° SSE 20:09:51 31° E 20:13:14 10° NNE
Cosmos 304 Rocket 3.9 20:07:30 10° NNW 20:12:22 89° NE 20:17:13 10° SSE
Cosmos 2154 Rocket 4.2 20:06:56 10° SSW 20:13:07 75° WNW 20:19:25 10° NNE
Cosmos 1656 Rocket 4.1 20:08:01 10° NW 20:13:26 64° NE 20:18:50 10° SE
Aureole 2 Rocket 3.5 20:11:42 10° NW 20:14:01 23° WSW 20:16:25 10° SSW
Thor Agena Rocket 3.6 20:09:28 10° NNE 20:14:40 83° ESE 20:19:45 10° SSW
COSMOS 2428 3.1 20:10:06 10° SW 20:15:47 72° NW 20:21:31 10° NE
USA 215 3.5 20:10:00 10° E 20:16:22 49° SSE 20:22:42 10° SW
Cosmos 1076 Rocket 4.1 20:12:31 10° SSW 20:16:45 57° WNW 20:20:59 10° N
Cosmos 2341 Rocket 4.1 20:11:17 10° S 20:17:30 80° E 20:23:45 10° NNE
Cosmos 1933 3.5 20:15:35 10° NNW 20:19:37 70° W 20:23:37 10° S
YAOGAN 11 4.3 20:18:38 10° SSE 20:23:00 75° ENE 20:27:30 10° NNW
Cosmos 2151 3.0 20:19:54 10° SSW 20:24:11 89° WNW 20:28:30 10° NNE
Helios 1A 3.0 20:21:19 10° SSE 20:25:28 90° ENE 20:29:39 10° NNW
Cosmos 2237 Rocket 2.3 20:20:49 10° SSW 20:26:31 78° SE 20:32:15 10° NE
Cosmos 2219 Rocket 2.8 20:22:11 10° WSW 20:27:45 61° NW 20:33:21 10° NE
Cosmos 1818 4.2 20:24:41 10° W 20:30:07 64° NNW 20:35:34 10° ENE
Cosmos 2360 Rocket 3.8 20:25:36 10° W 20:30:56 40° NNW 20:36:18 10° NE
Cosmos 2263 4.3 20:25:11 10° NW 20:30:57 88° SW 20:36:45 10° SE
Genesis I 3.6 20:27:57 10° SSW 20:31:40 43° SE 20:35:23 10° ENE
GEOS 3 Rocket 3.9 20:27:18 10° ENE 20:32:42 80° NNW 20:38:07 10° WSW
CZ-4C R/B 2.9 20:26:12 10° WNW 20:32:47 69° SW 20:40:37 10° SE
SL-8 Rocket 4.1 20:27:04 10° S 20:33:14 79° E 20:39:25 10° NNE
Cosmos 1151 Rocket 3.5 20:30:05 10° NNW 20:34:21 53° W 20:38:32 10° S
Cosmos 1812 3.9 20:32:45 10° N 20:36:23 37° ENE 20:40:00 10° SE
Cosmos 158 Rocket 3.9 20:31:54 10° SW 20:36:48 85° WNW 20:41:49 10° NNE
SL-4 R/B 1.0 20:35:29 10° S 20:37:26 42° WSW 20:39:27 10° NNW
Cosmos 1782 2.8 20:33:38 10° NNW 20:37:38 88° ENE 20:41:36 10° SSE
Cosmos 1727 Rocket 4.1 20:31:45 10° NNW 20:38:01 84° W 20:44:18 10° S
Cosmos 332 Rocket 4.3 20:34:32 10° NW 20:39:11 48° WSW 20:43:47 10° S
Cosmos 2112 Rocket 4.2 20:34:27 10° SSW 20:39:50 86° WNW 20:45:15 10° NNE
Cosmos 2333 Rocket 3.1 20:36:10 10° WSW 20:41:47 53° NW 20:47:27 10° NE
Cosmos 1408 Rocket 3.8 20:38:16 10° S 20:42:36 64° E 20:47:01 10° NNE
SL-16 R/B 3.8 20:37:15 10° ESE 20:42:59 40° NE 20:48:45 10° NNW
Helios 1B rocket 4.1 20:39:53 10° NE 20:43:15 23° E 20:46:35 10° SE
NOSS 2-1 (C) 4.1 20:40:17 10° WNW 20:44:17 69° NNE 20:49:41 10° E
ALOS 2 3.5 20:42:02 10° SSW 20:46:09 39° W 20:50:19 10° NNW
Nimbus 7 Rocket 4.5 20:41:12 10° NNE 20:47:13 84° ESE 20:53:08 10° SSW
Cosmos 1346 Rocket 3.3 20:45:11 10° S 20:48:58 47° E 20:52:47 10° NNE
NOSS 2-1 (D) 4.1 20:44:57 10° WNW 20:49:00 71° NNE 20:54:30 10° E
NOSS 0 Rocket 4.1 20:43:28 10° SW 20:49:39 80° NW 20:55:54 10° NE
EO 1 Del DPAF 3.9 20:46:19 10° N 20:50:00 51° WNW 20:53:40 10° SW
GP-B 3.6 20:46:20 10° N 20:50:43 57° W 20:55:04 10° SSW
Cosmos 292 Rocket 4.4 20:46:30 10° NNW 20:51:17 57° NE 20:56:01 10° SE
Cosmos 1500 Rocket 4.2 20:47:38 10° SSE 20:51:50 45° E 20:56:02 10° NNE
SL-16 R/B 4.5 20:47:03 10° WNW 20:52:05 31° N 20:57:06 10° NE
Cosmos 2278 Rocket 4.4 20:51:19 10° WNW 20:52:59 11° W 20:54:38 10° WSW
Cosmos 1943 Rocket 2.8 20:52:52 10° NW 20:58:14 44° WSW 21:03:33 10° S
Cosmos 1606 4.3 20:55:01 10° NNW 20:58:18 27° W 21:01:36 10° SSW
Cosmos 1331 Rocket 4.1 20:53:46 10° NW 20:59:06 76° WSW 21:04:25 10° SSE
ATLAS 5 CENTAUR R/B 2.4 20:54:51 10° W 20:59:30 67° N 21:04:58 10° ENE
RESURS DK-1 2.6 20:56:23 10° NW 21:00:27 54° SW 21:04:30 10° SSE
Cosmos 1633 2.8 20:58:57 10° S 21:02:32 61° E 21:06:08 10° NNE
Cosmos 44 3.4 21:03:30 10° SSW 21:07:42 48° SE 21:12:05 10° ENE
Cosmos 1680 Rocket 4.2 21:02:48 10° SW 21:08:04 58° NW 21:13:21 10° NNE
Landsat 4 4.1 21:05:55 10° NNE 21:09:40 55° ESE 21:13:24 10° S
SL-16 R/B 2.3 21:05:53 10° SSW 21:11:32 71° SE 21:17:14 10° NE
Cosmos 1110 Rocket 4.3 21:11:55 10° NW 21:17:04 56° WSW 21:22:14 10° S
Cosmos 405 3.9 21:15:33 10° NNW 21:18:51 36° W 21:22:07 10° SSW
Lacrosse 5 rocket 2.5 21:16:36 10° W 21:19:42 21° SW 21:22:41 10° SSE
Cosmos 1862 4.1 21:18:16 10° SSE 21:22:02 43° E 21:25:51 10° NNE
Cosmos 389 Rocket 2.8 21:22:45 10° NNW 21:26:19 67° ENE 21:29:48 10° SSE
Cosmos 1707 Rocket 3.7 21:24:33 10° NNW 21:29:05 82° ENE 21:33:33 10° SSE
MOZ.5/SAFIR/RUBIN 5/SL-8 4.3 21:26:50 10° SE 21:31:31 63° ENE 21:36:16 10° NNW
Resurs 1-4 Rocket 3.8 21:31:43 10° NE 21:36:05 25° E 21:40:27 10° SE
Meteor 2-3 Rocket 4.0 21:31:28 10° SSW 21:37:07 68° WNW 21:42:53 10° NNE
Cosmos 1302 Rocket 4.1 21:33:09 10° NW 21:38:22 69° WSW 21:43:32 10° SSE
Cosmos 2228 Rocket 3.9 21:34:52 10° NNW 21:39:12 42° W 21:43:30 10° SSW
NOSS 2-1 (E) 3.9 21:35:18 10° WNW 21:39:39 90° SSW 21:45:39 10° ESE
EP 3 3.6 21:38:07 10° SW 21:40:05 61° SSE 21:42:14 10° ENE
Meteor 1-10 Rocket 4.4 21:36:16 10° NNW 21:41:48 60° W 21:47:14 10° S
ADEOS II 4.4 21:42:14 10° NE 21:45:13 15° E 21:48:11 10° ESE
Cosmos 1340 3.7 21:41:50 10° SW 21:45:25 40° WNW 21:49:01 10° N
Cosmos 1825 4.5 21:42:50 10° WSW 21:45:39 19° NW 21:48:28 10° N
Cosmos 2369 Rocket 3.2 21:41:15 10° NW 21:46:04 30° WSW 21:50:53 10° SSW
Cosmos 1603 4.3 21:41:15 10° S 21:46:41 48° ESE 21:52:11 10° NE
CZ-4 R/B 3.9 21:43:16 10° NNE 21:47:59 81° ESE 21:52:43 10° SSW
Spot 1 4.4 21:43:27 10° SSE 21:48:28 84° WSW 21:53:14 10° NNW
Cosmos 2123 Rocket 4.1 21:42:47 10° NNW 21:49:01 75° W 21:55:10 10° S
Cosmos 1862 Rocket 3.9 21:45:20 10° NNW 21:49:46 70° ENE 21:54:13 10° SSE
Cosmos 1821 Rocket 4.0 21:46:53 10° SSW 21:53:01 85° WNW 21:59:10 10° NNE
COSMOS 2455 4.3 21:49:06 10° WNW 21:53:26 21° WSW 21:57:46 10° SSW
IRAS Rocket 4.3 21:48:02 10° SSE 21:53:33 79° WSW 21:59:05 10° NNW
SWARM A 4.3 21:50:22 10° N 21:53:44 78° W 21:57:04 10° S
Cosmos 1633 Rocket 3.9 21:51:29 10° SSE 21:55:38 43° E 21:59:50 10° NNE
Cosmos 1656 Rocket 4.2 21:51:50 10° NW 21:56:54 41° WSW 22:01:56 10° S
Cosmos 1743 Rocket 4.0 21:53:11 10° SSW 21:57:27 57° WNW 22:01:47 10° N
Sich 1 3.2 21:53:27 10° S 21:57:44 68° E 22:02:06 10° NNE
DELTA 2 DEB (DPAF) 4.2 21:53:23 10° SSE 21:57:52 85° WSW 22:02:22 10° NNW
Cosmos 44 Rocket 4.3 21:54:00 10° S 21:58:06 30° SE 22:02:16 10° ENE
USA 215 3.3 21:53:27 10° E 22:00:01 67° S 22:06:34 10° WSW
COSMOS 2428 4.5 21:55:44 10° W 22:00:56 35° NNW 22:06:09 10° NE
